Orbital Elements at Epoch 2459200.5 (2020-Dec-17.0) TDB
Reference: JPL 19 (heliocentric ecliptic J2000)
Element | Value | Uncertainty (1-sigma) | Units |
e | .1049293428959554 | 7.1139e-08 | |
a | 2.667575743004273 | 1.8858e-08 | au |
q | 2.387668773165645 | 1.8214e-07 | au |
i | 14.97984735959723 | 8.485e-06 | deg |
node | 16.95376610413477 | 1.4603e-05 | deg |
peri | 306.5507791568584 | 4.0647e-05 | deg |
M | 66.49936310446444 | 3.9706e-05 | deg |
tp | 2458906.539788353102 (2020-Feb-27.03978835) | 0.00017483 | TDB |
period | 1591.378793006495 4.36 | 1.6875e-05 4.62e-08 | d yr |
n | .2262189251120243 | 2.3988e-09 | deg/d |
Q | 2.947482712842902 | 2.0837e-08 | au |
|
| | Orbit Determination Parameters
Additional Information
|